Charleston, SC

12:13 PM EDT on April 23, 2017 (GMT -0400)
Charleston Air Force Base-International

Weather History for KCHS - May, 2013

Change the Weather History Date:

Friday, May 3, 2013

  Actual Average Record
Temperature  
Mean Temperature 66 °F 69 °F  
Max Temperature 71 °F 80 °F 93 °F (1959)
Min Temperature 60 °F 58 °F 40 °F (1939)
Degree Days  
Heating Degree Days 0 1  
Month to date heating degree days 0 3  
Since 1 July heating degree days 1837 1966  
Cooling Degree Days 1 5  
Month to date cooling degree days 9 15  
Year to date cooling degree days 132 133  
Growing Degree Days 16 (Base 50)    
Moisture  
Dew Point 56 °F    
Average Humidity 73    
Maximum Humidity 90    
Minimum Humidity 56    
Precipitation  
Precipitation 0.03 in 0.10 in 2.35 in (1946)
Month to date precipitation 0.04 0.28  
Year to date precipitation 20.49 13.57  
Sea Level Pressure  
Sea Level Pressure 30.06 in    
Wind  
Wind Speed 16 mph (NE)    
Max Wind Speed 26 mph    
Max Gust Speed 38 mph    
Visibility 10 miles    
Events Rain    
T = Trace of Precipitation, MM = Missing Value Source: NWS Daily Summary

Daily Weather History Graph

Daily Weather History Graph

Search for Another Location

Airport or City:

Trip Planner

Search our weather history database for the weather conditions in past years. The results will help you decide how hot, cold, wet, or windy it might be!

Date:

Astronomy

May. 03, 2013 Rise Set
Actual Time 6:30 AM EDT 8:03 PM EDT
Civil Twilight 6:04 AM EDT 8:30 PM EDT
Nautical Twilight 5:32 AM EDT 9:02 PM EDT
Astronomical Twilight 4:59 AM EDT 9:35 PM EDT
Moon 2:33 AM EDT (5/3) 2:15 PM EDT (5/3)
Length of Visible Light 14h 26m
Length of Day
13h 33m
Last Quarter, 37% of the Moon is Illuminated
May 3
Last Quarter
May 9
New
May 18
First Quarter
May 25
Full
May 31
Last Quarter

Hourly Weather History & Observations

Time (EDT) Temp. Dew Point Humidity Pressure Visibility Wind Dir Wind Speed Gust Speed Precip Events Conditions
12:56 AM 64.9 °F 54.0 °F 68% 30.11 in 10.0 mi NE 9.2 mph - N/A   Overcast
1:48 AM 62.6 °F 57.2 °F 82% 30.11 in 4.0 mi ENE 10.4 mph - 0.01 in Rain Light Rain
1:56 AM 61.0 °F 57.0 °F 87% 30.11 in 5.0 mi NE 13.8 mph - 0.01 in Rain Light Rain
2:56 AM 61.0 °F 57.9 °F 90% 30.08 in 10.0 mi NE 9.2 mph - 0.01 in   Overcast
3:56 AM 61.0 °F 57.9 °F 90% 30.06 in 5.0 mi NE 11.5 mph - 0.01 in Rain Light Rain
4:20 AM 60.8 °F 57.2 °F 88% 30.06 in 10.0 mi NE 10.4 mph - 0.00 in   Overcast
4:56 AM 60.1 °F 57.0 °F 90% 30.06 in 10.0 mi NNE 12.7 mph - 0.00 in   Overcast
5:24 AM 60.8 °F 57.2 °F 88% 30.06 in 10.0 mi NE 15.0 mph - 0.00 in   Overcast
5:56 AM 60.1 °F 57.0 °F 90% 30.06 in 10.0 mi NE 12.7 mph 19.6 mph 0.00 in   Overcast
6:08 AM 60.8 °F 57.2 °F 88% 30.06 in 10.0 mi NNE 10.4 mph - N/A   Overcast
6:31 AM 60.8 °F 57.2 °F 88% 30.07 in 10.0 mi NE 10.4 mph - N/A   Overcast
6:56 AM 60.1 °F 57.0 °F 90% 30.07 in 10.0 mi NNE 15.0 mph - N/A   Overcast
7:56 AM 61.0 °F 57.0 °F 87% 30.08 in 10.0 mi NE 13.8 mph 20.7 mph N/A   Overcast
8:56 AM 62.1 °F 57.9 °F 86% 30.09 in 10.0 mi NE 15.0 mph - N/A   Overcast
9:56 AM 64.0 °F 59.0 °F 84% 30.08 in 10.0 mi ENE 15.0 mph 21.9 mph N/A   Overcast
10:56 AM 66.0 °F 60.1 °F 81% 30.08 in 10.0 mi NE 15.0 mph - N/A   Mostly Cloudy
11:56 AM 69.1 °F 60.1 °F 73% 30.09 in 10.0 mi ENE 12.7 mph 21.9 mph N/A   Overcast
12:34 PM 69.8 °F 60.8 °F 73% 30.08 in 10.0 mi ENE 15.0 mph 21.9 mph N/A   Mostly Cloudy
12:56 PM 69.1 °F 59.0 °F 70% 30.07 in 10.0 mi ENE 19.6 mph 27.6 mph N/A   Mostly Cloudy
1:56 PM 69.1 °F 59.0 °F 70% 30.07 in 10.0 mi ENE 20.7 mph 27.6 mph N/A   Overcast
2:56 PM 70.0 °F 59.0 °F 68% 30.05 in 10.0 mi ENE 18.4 mph 25.3 mph N/A   Mostly Cloudy
3:56 PM 70.0 °F 59.0 °F 68% 30.04 in 10.0 mi NE 19.6 mph 31.1 mph N/A   Mostly Cloudy
4:16 PM 69.8 °F 57.2 °F 64% 30.04 in 10.0 mi ENE 18.4 mph 27.6 mph N/A   Mostly Cloudy
4:56 PM 68.0 °F 57.0 °F 68% 30.04 in 10.0 mi ENE 18.4 mph 25.3 mph N/A   Overcast
5:56 PM 66.0 °F 55.9 °F 70% 30.03 in 10.0 mi ENE 19.6 mph 32.2 mph N/A   Overcast
6:56 PM 64.9 °F 53.1 °F 65% 30.04 in 10.0 mi ENE 19.6 mph 28.8 mph N/A   Mostly Cloudy
7:56 PM 64.0 °F 52.0 °F 65% 30.05 in 10.0 mi ENE 27.6 mph 38.0 mph N/A   Overcast
8:56 PM 63.0 °F 48.9 °F 60% 30.04 in 10.0 mi ENE 17.3 mph 26.5 mph 0.00 in   Overcast
9:56 PM 63.0 °F 48.0 °F 58% 30.05 in 10.0 mi ENE 15.0 mph 25.3 mph N/A   Overcast
10:56 PM 63.0 °F 46.9 °F 56% 30.04 in 10.0 mi ENE 11.5 mph 27.6 mph N/A   Overcast
11:56 PM 62.1 °F 48.0 °F 60% 30.02 in 10.0 mi ENE 16.1 mph 25.3 mph N/A   Overcast